Hourly Weather Luhovyky

Today, 7 May, Friday

Time Temperature Precipitation Wind Pressure Humidity
00:00 +6°C° 0 mm 2 mps 745 mmHg 88%
01:00 +6°C° 0 mm 2 mps 746 mmHg 86%
02:00 +6°C° 0 mm 2 mps 746 mmHg 84%
03:00 +6°C° 0 mm 2 mps 746 mmHg 82%
04:00 +5°C° 0 mm 2 mps 746 mmHg 81%
05:00 +6°C° 0 mm 1 mps 746 mmHg 79%
06:00 +8°C° 0 mm 1 mps 746 mmHg 74%
07:00 +9°C° 0 mm 2 mps 746 mmHg 69%
08:00 +12°C° 0 mm 2 mps 747 mmHg 63%
09:00 +12°C° 0 mm 3 mps 747 mmHg 58%
10:00 +13°C° 0 mm 3 mps 747 mmHg 53%
11:00 +14°C° 0 mm 4 mps 747 mmHg 48%
12:00 +15°C° 0 mm 4 mps 746 mmHg 48%
13:00 +15°C° 0 mm 5 mps 746 mmHg 49%
14:00 +16°C° 0 mm 6 mps 745 mmHg 49%
15:00 +15°C° 0 mm 5 mps 745 mmHg 54%
16:00 +15°C° 0 mm 5 mps 744 mmHg 59%
17:00 +14°C° 0 mm 4 mps 744 mmHg 64%
18:00 +14°C° 0.2 mm 4 mps 744 mmHg 66%
19:00 +13°C° 0.2 mm 5 mps 743 mmHg 68%
20:00 +13°C° 0.2 mm 5 mps 743 mmHg 70%
21:00 +13°C° 1.2 mm 6 mps 742 mmHg 74%
22:00 +12°C° 1.2 mm 7 mps 742 mmHg 79%
23:00 +11°C° 1.2 mm 8 mps 741 mmHg 83%

Tomorrow, 8 May, Saturday

Time Temperature Precipitation Wind Pressure Humidity
00:00 +11°C° 0.7 mm 7 mps 741 mmHg 86%
01:00 +11°C° 0.7 mm 7 mps 741 mmHg 88%
02:00 +11°C° 0.7 mm 6 mps 740 mmHg 90%
03:00 +10°C° 1.5 mm 6 mps 740 mmHg 91%
04:00 +10°C° 1.5 mm 6 mps 739 mmHg 91%
05:00 +10°C° 1.5 mm 6 mps 739 mmHg 92%
06:00 +10°C° 0.7 mm 6 mps 740 mmHg 92%
07:00 +9°C° 0.7 mm 5 mps 740 mmHg 93%
08:00 +10°C° 0.7 mm 4 mps 741 mmHg 93%
09:00 +9°C° 0.1 mm 5 mps 741 mmHg 89%
10:00 +9°C° 0.1 mm 6 mps 742 mmHg 86%
11:00 +9°C° 0.1 mm 6 mps 743 mmHg 82%
12:00 +9°C° 0.1 mm 6 mps 743 mmHg 77%
13:00 +9°C° 0.1 mm 7 mps 744 mmHg 72%
14:00 +9°C° 0.1 mm 7 mps 744 mmHg 66%
15:00 +9°C° 0 mm 7 mps 744 mmHg 65%
16:00 +9°C° 0 mm 7 mps 745 mmHg 64%
17:00 +9°C° 0 mm 8 mps 745 mmHg 63%
18:00 +6°C° 0 mm 7 mps 746 mmHg 70%
19:00 +5°C° 0 mm 6 mps 746 mmHg 76%
20:00 +3°C° 0 mm 6 mps 747 mmHg 82%
21:00 +3°C° 0 mm 5 mps 748 mmHg 84%
22:00 +4°C° 0 mm 4 mps 748 mmHg 86%
23:00 +3°C° 0 mm 4 mps 748 mmHg 88%

Day after tomorrow, 9 May, Sunday

Time Temperature Precipitation Wind Pressure Humidity
00:00 +3°C° 0 mm 4 mps 749 mmHg 87%
01:00 +3°C° 0 mm 4 mps 749 mmHg 87%
02:00 +3°C° 0 mm 4 mps 750 mmHg 87%
03:00 +1°C° 0 mm 4 mps 750 mmHg 87%
04:00 +1°C° 0 mm 4 mps 751 mmHg 88%
05:00 +1°C° 0 mm 4 mps 751 mmHg 88%
06:00 +4°C° 0 mm 4 mps 752 mmHg 81%
07:00 +5°C° 0 mm 5 mps 752 mmHg 74%
08:00 +7°C° 0 mm 5 mps 753 mmHg 67%
09:00 +8°C° 0.1 mm 6 mps 753 mmHg 64%
10:00 +9°C° 0.1 mm 6 mps 753 mmHg 61%
11:00 +10°C° 0.1 mm 7 mps 753 mmHg 58%
12:00 +11°C° 0.1 mm 7 mps 753 mmHg 54%
13:00 +11°C° 0.1 mm 7 mps 753 mmHg 50%
14:00 +12°C° 0.1 mm 7 mps 754 mmHg 46%
15:00 +13°C° 0 mm 6 mps 754 mmHg 49%
16:00 +12°C° 0 mm 5 mps 754 mmHg 52%
17:00 +12°C° 0 mm 4 mps 754 mmHg 55%
18:00 +10°C° 0 mm 4 mps 755 mmHg 59%
19:00 +9°C° 0 mm 3 mps 755 mmHg 63%
20:00 +7°C° 0 mm 2 mps 756 mmHg 67%
21:00 +7°C° 0 mm 2 mps 756 mmHg 67%
22:00 +6°C° 0 mm 2 mps 756 mmHg 66%
23:00 +5°C° 0 mm 2 mps 756 mmHg 66%

10 May, Monday

Time Temperature Precipitation Wind Pressure Humidity
00:00 +5°C° 0 mm 2 mps 757 mmHg 67%
01:00 +5°C° 0 mm 2 mps 757 mmHg 68%
02:00 +4°C° 0 mm 2 mps 757 mmHg 69%
03:00 +4°C° 0 mm 2 mps 757 mmHg 70%
04:00 +4°C° 0 mm 2 mps 758 mmHg 71%
05:00 +4°C° 0 mm 2 mps 758 mmHg 72%
06:00 +6°C° 0 mm 2 mps 758 mmHg 67%
07:00 +8°C° 0 mm 2 mps 758 mmHg 62%
08:00 +10°C° 0 mm 2 mps 758 mmHg 57%
09:00 +11°C° 0 mm 3 mps 758 mmHg 53%
10:00 +12°C° 0 mm 3 mps 758 mmHg 49%
11:00 +13°C° 0 mm 3 mps 758 mmHg 45%
12:00 +14°C° 0 mm 4 mps 758 mmHg 45%
13:00 +14°C° 0 mm 4 mps 757 mmHg 45%
14:00 +15°C° 0 mm 5 mps 757 mmHg 45%
15:00 +15°C° 0 mm 4 mps 757 mmHg 48%
16:00 +14°C° 0 mm 4 mps 757 mmHg 52%
17:00 +14°C° 0 mm 4 mps 757 mmHg 56%
18:00 +12°C° 0 mm 4 mps 757 mmHg 62%
19:00 +11°C° 0 mm 3 mps 757 mmHg 68%
20:00 +9°C° 0 mm 3 mps 757 mmHg 74%
21:00 +8°C° 0 mm 3 mps 756 mmHg 76%
22:00 +8°C° 0 mm 3 mps 756 mmHg 78%
23:00 +7°C° 0 mm 3 mps 756 mmHg 79%

11 May, Tuesday

Time Temperature Precipitation Wind Pressure Humidity
00:00 +7°C° 0 mm 3 mps 756 mmHg 80%
01:00 +5°C° 0 mm 3 mps 756 mmHg 81%
02:00 +5°C° 0 mm 3 mps 756 mmHg 82%
03:00 +5°C° 0 mm 3 mps 756 mmHg 82%
04:00 +5°C° 0 mm 3 mps 756 mmHg 82%
05:00 +5°C° 0 mm 4 mps 756 mmHg 81%
06:00 +7°C° 0 mm 4 mps 756 mmHg 74%
07:00 +9°C° 0 mm 5 mps 756 mmHg 67%
08:00 +12°C° 0 mm 5 mps 755 mmHg 60%
09:00 +13°C° 0 mm 5 mps 755 mmHg 57%
10:00 +14°C° 0 mm 5 mps 755 mmHg 53%
11:00 +16°C° 0 mm 5 mps 755 mmHg 50%
12:00 +16°C° 0 mm 5 mps 754 mmHg 50%
13:00 +17°C° 0 mm 5 mps 754 mmHg 50%
14:00 +19°C° 0 mm 5 mps 754 mmHg 51%
15:00 +19°C° 0 mm 5 mps 754 mmHg 55%
16:00 +17°C° 0 mm 5 mps 754 mmHg 59%
17:00 +17°C° 0 mm 5 mps 754 mmHg 64%
18:00 +15°C° 0 mm 4 mps 754 mmHg 71%
19:00 +14°C° 0 mm 4 mps 753 mmHg 77%
20:00 +12°C° 0 mm 3 mps 753 mmHg 84%
21:00 +12°C° 0 mm 3 mps 753 mmHg 86%
22:00 +11°C° 0 mm 3 mps 753 mmHg 87%
23:00 +11°C° 0 mm 3 mps 753 mmHg 89%

12 May, Wednesday

Time Temperature Precipitation Wind Pressure Humidity
00:00 +11°C° 0 mm 3 mps 753 mmHg 91%
01:00 +10°C° 0 mm 3 mps 753 mmHg 93%
02:00 +9°C° 0 mm 3 mps 753 mmHg 95%
03:00 +9°C° 0 mm 2 mps 753 mmHg 95%
04:00 +9°C° 0 mm 2 mps 752 mmHg 95%
05:00 +10°C° 0 mm 1 mps 752 mmHg 95%
06:00 +10°C° 0 mm 2 mps 752 mmHg 89%
07:00 +12°C° 0 mm 3 mps 752 mmHg 84%
08:00 +14°C° 0 mm 3 mps 752 mmHg 78%
09:00 +15°C° 0 mm 4 mps 751 mmHg 73%
10:00 +16°C° 0 mm 5 mps 750 mmHg 67%
11:00 +17°C° 0 mm 6 mps 750 mmHg 61%
12:00 +17°C° 0 mm 6 mps 749 mmHg 64%
13:00 +17°C° 0 mm 6 mps 749 mmHg 68%
14:00 +16°C° 0 mm 6 mps 749 mmHg 71%
15:00 +15°C° 0.1 mm 5 mps 749 mmHg 76%
16:00 +13°C° 0.1 mm 5 mps 748 mmHg 82%
17:00 +12°C° 0.1 mm 5 mps 748 mmHg 87%
18:00 +11°C° 0 mm 4 mps 748 mmHg 88%
19:00 +10°C° 0 mm 4 mps 748 mmHg 89%
20:00 +8°C° 0 mm 4 mps 748 mmHg 90%
21:00 +8°C° 0 mm 3 mps 748 mmHg 92%
22:00 +8°C° 0 mm 3 mps 748 mmHg 93%
23:00 +7°C° 0 mm 3 mps 748 mmHg 95%
Show more

We Need Your Consent

Meteoprog and our Service Providers may store and access personal data such as cookies, device identifiers or other similar technologies on your device and process such data to personalise content and ads, as well as provide social media features and to analyse the traffic.

  • Store and/or access information on your device

    Cookies, device identifiers or other information can be stored or accessed on your device for the purposes indicated above.

  • Personalised ads and content, ad and content measurement, audience insights, and products development

    Ads and content can be personalised based on a profile. More data can be added to better personalise ads and content. Ad and content performance can be measured. Insights about the audience who saw the ads and content can be derived. Such data can be used to develop or improve user’s experience, systems and software.

By clicking ‘I Agree’ you will allow the use of indicated cookies, device identifiers, web beacons or other similar technologies. Your settings can be changed in the browser on your device.

For certain purposes, legitimate interests may be relied on, rather than consent. You can read more about this in our Privacy and Cookie Policy.